Wind_Speed
10 10 9 9 8 7 6 6 5 4 4 4 3 3 2 2 2 1 1 1 2 2 2 2 2 2 2 2 2 2 2 3 3 3 3 3 3 3 3 4 4 6 6
12 11 10 10 9 8 7 6 5 5 5 5 4 4 3 2 2 1 1 0 0 1 1 1 1 1 1 1 1 1 1 1 2 2 2 2 2 2 3 3 4 5 6
13 12 12 10 9 8 8 7 6 6 6 6 5 4 4 3 3 2 2 2 1 1 1 1 1 1 1 2 2 2 2 2 2 1 1 1 1 1 2 3 3 5 6
14 13 12 11 10 9 8 7 7 6 6 6 6 5 5 4 4 3 2 2 2 2 2 2 2 2 2 3 3 3 3 3 3 2 2 1 1 1 1 2 3 4 5
15 14 13 12 10 9 8 8 7 7 7 7 7 6 5 5 4 4 4 3 3 3 3 3 4 4 4 4 5 5 4 4 4 4 3 2 2 2 2 3 3 3 4
16 14 13 12 11 10 9 8 8 8 8 8 7 7 6 6 5 5 5 5 5 5 5 5 5 5 5 5 6 6 6 6 5 5 4 3 3 3 2 3 3 3 4
15 15 14 13 12 11 10 9 9 9 9 9 8 7 7 7 6 6 6 6 6 6 6 6 6 6 7 7 7 8 8 7 7 6 5 5 4 4 4 4 4 4 4
16 17 15 14 13 12 11 10 10 10 10 10 9 8 8 8 7 7 7 7 7 7 7 7 7 8 8 8 9 9 9 9 8 7 7 7 6 5 5 5 5 5 5
15 16 16 15 14 13 12 11 11 11 11 10 10 9 9 9 9 8 8 8 8 8 8 9 8 8 9 9 9 8 8 9 9 9 9 9 9 8 6 6 6 6 7
16 16 17 16 15 14 13 13 13 12 11 11 11 10 10 10 9 9 9 9 9 8 9 9 9 9 9 9 9 9 9 9 10 10 11 11 10 9 9 8 8 8 8
16 17 17 17 16 15 14 14 13 13 12 12 11 11 10 10 10 10 9 9 9 9 9 9 9 9 9 9 9 9 9 9 9 10 11 10 10 11 10 10 9 9 9
18 18 18 18 17 16 15 15 14 14 13 12 12 12 11 11 10 10 9 9 9 8 9 9 8 8 8 9 9 9 9 9 9 9 10 11 11 12 12 11 11 12 11
21 20 19 20 19 18 17 16 15 14 13 13 12 11 10 9 9 9 9 8 7 7 7 8 7 7 7 7 7 8 9 10 9 8 10 11 12 12 13 13 12 13 13
22 22 21 20 20 18 18 16 15 14 13 12 10 10 10 9 9 8 7 7 6 5 5 5 5 6 6 7 8 8 10 10 9 9 9 10 12 13 13 13 13 14 14
23 23 23 22 21 18 17 16 15 13 11 10 9 9 9 8 8 7 7 6 5 5 4 5 5 6 6 6 7 7 8 9 9 9 10 10 10 12 13 13 13 14 14
23 23 22 22 20 18 17 16 14 11 9 9 8 8 7 7 6 6 5 4 4 4 4 5 5 5 5 5 6 6 6 6 7 8 9 10 11 12 12 13 13 14 15
20 21 21 21 19 17 16 14 12 11 9 8 7 7 6 5 5 4 4 3 4 4 4 4 4 4 4 4 4 5 5 6 7 8 8 8 9 10 11 12 13 13 14
20 19 19 19 18 17 15 14 13 11 10 8 7 6 4 3 3 3 3 2 3 3 3 4 4 4 4 4 5 5 5 6 6 7 8 8 9 9 10 11 12 13 13
19 19 19 19 18 16 14 14 13 11 9 7 7 6 4 2 1 0 0 1 2 3 3 3 3 4 5 5 5 5 6 6 7 7 8 8 8 9 9 10 11 12 12
17 17 18 18 17 15 14 13 12 10 8 7 7 5 3 2 1 1 1 2 2 3 3 4 4 4 5 5 6 6 6 7 7 7 7 8 8 8 9 9 10 10 11
16 17 18 19 17 15 14 13 11 9 8 7 6 4 4 3 2 1 1 2 2 3 4 4 5 5 6 6 6 7 7 7 8 8 8 8 9 9 9 9 10 10 10
14 16 17 18 17 15 14 13 11 9 8 7 5 5 4 3 2 1 1 1 2 3 4 4 5 6 7 7 7 7 8 8 8 9 9 9 9 9 10 10 10 11 12
12 14 16 16 15 13 13 12 11 9 9 7 6 5 4 3 3 1 1 1 2 3 4 4 5 6 7 7 7 8 9 9 9 10 10 10 10 10 10 11 11 11 12
9 12 14 14 14 13 13 12 11 10 9 8 7 6 5 4 3 2 1 1 2 3 4 5 6 6 7 8 8 9 10 11 11 10 11 11 11 11 12 12 12 12 13
5 9 12 12 12 12 12 12 11 10 9 8 7 7 6 5 4 3 2 2 2 3 3 4 5 7 8 8 9 10 11 11 12 11 11 11 12 12 13 13 13 14 14
4 7 9 10 11 11 11 11 11 11 10 9 8 8 7 6 5 4 4 3 4 4 4 5 6 8 8 9 10 11 12 12 12 12 12 12 12 13 14 14 15 15 15
Wind_Direction
245 240 236 233 231 229 233 240 244 242 236 230 225 217 196 173 153 132 114 95 72 57 47 40 33 30 30 27 21 23 25 25 28 35 38 40 44 61 94 109 122 119 113
246 240 235 234 232 230 234 239 246 251 251 247 241 236 228 218 215 216 215 213 19 16 19 15 1 353 352 337 326 327 334 346 355 10 21 28 37 70 102 107 115 125 119
243 238 235 234 232 232 238 242 248 256 257 256 250 245 245 244 245 249 253 253 258 267 279 284 304 293 289 288 284 278 279 287 300 314 340 359 35 77 110 120 121 135 127
244 237 234 234 234 236 242 246 253 261 260 257 255 253 253 252 255 261 264 262 265 268 270 272 283 280 269 263 265 265 264 268 274 280 284 280 252 185 154 145 142 146 137
241 234 231 232 233 237 242 248 253 260 260 258 258 258 256 253 256 261 264 265 266 267 271 274 276 276 270 261 259 258 256 258 262 267 266 259 246 217 187 177 171 161 151
236 232 229 229 234 238 240 246 252 257 259 261 260 258 256 256 259 261 264 268 269 268 270 272 275 273 268 264 262 259 256 255 257 261 261 256 241 228 222 205 192 182 175
233 231 229 228 233 238 240 247 252 255 258 260 258 257 256 258 263 265 268 270 269 266 266 267 271 270 269 268 266 261 257 255 255 254 255 252 246 235 233 230 215 209 204
234 231 228 228 231 235 240 246 251 254 256 256 256 259 260 261 265 268 269 269 269 268 265 265 267 270 270 271 268 264 259 258 257 252 250 248 247 242 240 238 229 228 224
233 231 228 227 231 235 241 246 250 252 254 256 258 261 262 261 265 268 267 267 270 271 269 267 269 273 272 270 266 262 261 260 258 257 253 247 244 243 242 239 236 237 233
234 233 232 227 229 233 239 245 249 251 254 257 259 262 264 264 266 267 267 268 271 273 273 269 268 273 272 268 264 263 261 262 261 256 250 242 240 241 241 241 240 242 239
238 233 232 230 230 233 238 243 248 251 254 258 260 263 267 268 267 266 268 269 269 271 274 271 269 273 271 266 266 264 261 260 261 254 257 254 243 243 245 244 244 246 247
238 232 230 229 232 237 241 243 247 250 252 257 262 264 269 271 271 272 274 272 271 271 272 273 277 277 272 268 268 265 262 257 262 256 263 262 250 247 248 248 247 248 250
236 233 230 232 235 239 241 240 244 249 252 258 263 263 269 276 277 277 279 277 276 277 278 281 281 282 279 276 274 271 266 264 259 264 263 261 253 248 249 250 249 250 248
237 235 232 235 237 240 240 242 244 250 255 256 254 262 269 275 277 281 287 280 282 287 287 292 292 292 290 283 277 272 268 269 263 261 260 261 255 250 252 255 252 253 251
233 230 230 231 236 239 240 242 244 249 254 258 263 267 271 278 282 286 288 292 297 299 300 298 297 296 297 293 286 280 274 270 268 266 265 266 262 255 254 258 256 254 252
232 226 225 227 234 239 243 244 239 240 247 253 263 268 272 276 279 284 291 297 299 300 301 304 305 304 302 303 299 292 288 278 276 276 273 270 266 264 260 261 262 257 253
230 225 225 227 232 237 240 241 234 235 241 244 252 264 267 269 278 286 288 292 303 311 314 320 326 326 322 321 317 304 298 293 286 285 284 280 276 270 265 264 265 263 258
228 222 225 226 230 234 237 238 236 236 236 239 248 253 253 262 274 279 280 298 316 336 343 347 346 343 341 336 331 327 320 305 299 296 293 288 286 282 276 273 270 265 263
223 221 224 223 225 228 233 234 234 235 236 236 238 243 241 246 258 351 6 4 6 6 3 0 354 350 349 349 345 339 333 325 313 307 302 296 292 287 285 283 280 271 268
221 221 221 222 223 227 231 233 233 228 227 225 230 225 209 201 164 119 80 41 30 21 14 10 3 358 353 349 345 341 336 331 322 315 311 307 299 295 293 292 288 280 274
225 223 224 225 222 225 230 228 218 214 212 211 212 201 189 184 176 151 93 52 37 22 14 8 0 353 348 345 344 343 341 336 331 325 319 313 308 302 297 296 293 290 283
221 223 222 223 219 219 222 216 207 205 203 198 191 182 183 186 187 168 117 43 14 5 3 358 357 354 350 346 344 344 343 338 331 326 323 319 314 310 305 300 296 294 289
219 222 221 219 213 210 211 208 202 199 194 191 190 188 189 190 188 175 156 16 1 359 1 358 357 358 357 353 349 346 345 343 337 330 324 320 314 311 308 306 302 297 292
216 213 210 208 204 206 206 202 200 197 197 199 197 197 198 200 204 212 238 317 346 353 359 360 2 1 358 357 355 351 348 344 340 334 328 322 316 311 308 306 303 299 296
200 195 196 197 199 198 201 204 203 202 203 202 203 208 213 217 224 240 258 287 314 328 339 347 352 352 352 352 350 347 344 342 340 337 332 326 318 313 309 307 304 301 298
164 175 187 193 194 195 200 203 202 204 205 205 212 216 223 228 236 248 261 280 293 301 310 320 327 332 336 337 338 337 337 337 336 334 332 328 322 316 311 307 305 301 299
Height
5895 5895 5896 5898 5898 5899 5900 5900 5900 5901 5901 5901 5901 5901 5900 5900 5900 5900 5900 5900 5900 5900 5899 5899 5898 5898 5897 5897 5897 5897 5896 5896 5896 5896 5896 5896 5896 5896 5896 5896 5897 5897 5898
5893 5894 5895 5896 5897 5898 5899 5900 5900 5901 5901 5901 5901 5901 5901 5900 5900 5900 5900 5900 5900 5899 5899 5899 5898 5898 5898 5897 5897 5897 5897 5897 5897 5896 5896 5896 5897 5897 5897 5897 5898 5898 5899
5891 5893 5894 5895 5896 5897 5898 5899 5900 5900 5901 5901 5901 5901 5901 5900 5900 5900 5900 5900 5899 5899 5899 5898 5898 5898 5897 5897 5897 5897 5897 5897 5897 5897 5897 5897 5897 5897 5898 5898 5899 5899 5900
5889 5891 5893 5894 5895 5896 5897 5898 5899 5900 5900 5900 5900 5900 5900 5900 5900 5900 5899 5899 5899 5899 5898 5898 5898 5897 5897 5897 5897 5896 5897 5897 5897 5897 5897 5897 5897 5898 5898 5899 5899 5900 5901
5888 5889 5891 5892 5894 5895 5896 5897 5898 5899 5899 5899 5900 5899 5899 5899 5899 5899 5899 5899 5898 5898 5898 5898 5897 5897 5896 5896 5896 5896 5896 5896 5897 5897 5897 5897 5897 5898 5898 5899 5900 5901 5901
5886 5887 5889 5890 5892 5894 5895 5896 5897 5898 5898 5899 5899 5898 5898 5899 5898 5898 5898 5898 5898 5897 5897 5897 5896 5896 5896 5895 5895 5895 5895 5896 5896 5897 5897 5897 5897 5898 5898 5899 5900 5901 5902
5884 5886 5887 5889 5891 5892 5894 5895 5896 5897 5897 5898 5898 5898 5898 5898 5897 5897 5897 5897 5896 5896 5896 5895 5895 5895 5895 5894 5894 5894 5895 5895 5895 5896 5896 5897 5897 5898 5898 5899 5900 5901 5902
5882 5883 5885 5887 5889 5891 5892 5893 5895 5895 5896 5896 5897 5897 5896 5896 5896 5896 5896 5896 5895 5895 5894 5894 5894 5893 5893 5893 5893 5893 5893 5894 5894 5894 5895 5895 5896 5897 5898 5898 5899 5901 5902
5880 5881 5883 5885 5887 5889 5890 5892 5893 5894 5895 5895 5895 5895 5895 5895 5895 5895 5895 5894 5894 5893 5893 5892 5892 5892 5892 5891 5891 5891 5892 5892 5892 5893 5893 5893 5895 5896 5897 5898 5899 5900 5901
5877 5878 5881 5883 5885 5887 5889 5890 5891 5892 5893 5893 5894 5894 5894 5894 5893 5893 5893 5892 5892 5892 5891 5891 5891 5890 5890 5890 5890 5890 5890 5891 5891 5892 5890 5890 5893 5895 5896 5897 5898 5899 5900
5873 5876 5878 5880 5882 5885 5886 5888 5889 5890 5891 5892 5892 5892 5892 5892 5891 5891 5891 5891 5890 5890 5890 5889 5889 5889 5889 5889 5889 5889 5889 5889 5889 5889 5888 5889 5891 5893 5895 5896 5897 5898 5899
5869 5872 5875 5878 5880 5882 5884 5886 5887 5888 5889 5890 5890 5890 5890 5890 5889 5889 5889 5889 5888 5888 5888 5888 5888 5887 5887 5887 5887 5887 5887 5887 5886 5886 5887 5889 5890 5891 5893 5894 5895 5896 5897
5867 5869 5872 5875 5877 5880 5881 5883 5885 5886 5887 5887 5888 5888 5888 5888 5888 5888 5888 5887 5887 5887 5886 5886 5886 5886 5886 5886 5886 5886 5886 5886 5886 5886 5886 5887 5888 5890 5891 5892 5893 5894 5895
5863 5865 5868 5871 5874 5877 5879 5880 5882 5884 5884 5884 5885 5886 5886 5886 5886 5887 5886 5886 5886 5885 5885 5885 5885 5885 5884 5884 5884 5884 5884 5885 5885 5885 5883 5885 5887 5888 5889 5890 5891 5892 5893
5859 5862 5864 5868 5870 5874 5876 5878 5880 5881 5882 5882 5883 5884 5885 5885 5885 5885 5885 5884 5885 5885 5884 5884 5884 5884 5883 5883 5883 5883 5882 5883 5883 5883 5884 5884 5885 5886 5887 5888 5889 5890 5891
5854 5857 5861 5864 5867 5870 5873 5875 5877 5879 5880 5882 5882 5883 5883 5883 5883 5883 5884 5884 5884 5883 5883 5883 5882 5882 5882 5882 5882 5881 5881 5881 5882 5882 5882 5882 5883 5883 5885 5885 5886 5887 5888
5850 5853 5857 5860 5864 5868 5870 5873 5875 5877 5879 5880 5881 5881 5882 5882 5882 5882 5883 5883 5882 5882 5882 5882 5881 5881 5881 5881 5881 5880 5880 5880 5880 5880 5881 5881 5880 5881 5882 5883 5883 5884 5886
5847 5850 5855 5858 5862 5865 5868 5871 5873 5875 5877 5879 5880 5880 5880 5881 5881 5881 5882 5882 5881 5881 5881 5881 5881 5880 5880 5880 5880 5879 5879 5879 5879 5879 5879 5879 5879 5879 5880 5880 5881 5882 5883
5844 5848 5852 5857 5860 5862 5865 5869 5871 5873 5875 5877 5878 5879 5879 5880 5880 5880 5881 5881 5881 5881 5881 5880 5880 5880 5880 5879 5879 5879 5878 5878 5878 5878 5877 5877 5877 5878 5878 5878 5879 5879 5880
5842 5846 5850 5854 5857 5860 5864 5867 5869 5872 5874 5875 5877 5878 5879 5879 5880 5880 5880 5880 5880 5880 5880 5880 5880 5879 5879 5879 5878 5878 5877 5877 5877 5876 5876 5876 5876 5876 5876 5876 5876 5877 5877
5841 5844 5848 5852 5855 5859 5862 5865 5867 5870 5872 5874 5876 5877 5878 5879 5879 5880 5880 5880 5880 5880 5880 5880 5879 5879 5878 5878 5877 5877 5876 5876 5875 5875 5875 5874 5874 5874 5874 5874 5875 5874 5875
5840 5843 5846 5850 5853 5857 5861 5864 5866 5869 5871 5873 5875 5876 5877 5878 5879 5879 5880 5880 5880 5880 5879 5879 5879 5878 5878 5877 5876 5876 5876 5876 5874 5874 5873 5873 5872 5872 5872 5872 5872 5872 5872
5839 5842 5845 5848 5852 5856 5859 5863 5865 5868 5870 5872 5874 5875 5877 5877 5878 5879 5879 5879 5880 5879 5879 5879 5878 5878 5877 5876 5876 5875 5875 5874 5873 5872 5871 5871 5870 5870 5870 5869 5870 5870 5870
5839 5841 5844 5848 5851 5855 5858 5862 5865 5867 5870 5872 5873 5875 5876 5877 5878 5878 5879 5879 5879 5879 5879 5878 5878 5877 5877 5876 5875 5874 5873 5872 5872 5871 5870 5869 5868 5868 5867 5867 5867 5867 5867
5839 5841 5844 5847 5851 5854 5857 5861 5864 5867 5869 5871 5873 5874 5875 5876 5877 5878 5878 5878 5878 5878 5878 5878 5877 5877 5876 5875 5874 5873 5872 5871 5870 5869 5869 5868 5866 5866 5865 5864 5864 5864 5863
5841 5843 5845 5848 5851 5854 5857 5860 5863 5865 5868 5870 5872 5873 5874 5875 5876 5877 5877 5877 5877 5877 5877 5877 5876 5876 5875 5874 5873 5872 5871 5870 5869 5868 5867 5865 5864 5863 5862 5862 5861 5860 5860